Theta_e
332 332 332 331 330 329 328 329 330 329 329 329 330 331 331 331 331 332 333 332 330 331 332 331 328 328 328 328 328 329 331 332 331 330 330 330 329 330 330 329 328 327 327 327 327 327 328 328 328 327 328 328 327 327 327 327 328 327 326 326 327 327 326
330 330 331 331 330 329 329 330 331 331 330 329 331 332 332 331 331 332 333 332 331 331 332 330 327 327 329 328 328 329 331 331 331 331 330 330 329 329 330 329 329 328 328 328 328 327 327 328 328 327 327 327 327 327 327 327 327 327 326 327 327 327 326
331 330 330 330 330 330 330 330 331 331 331 330 331 332 332 331 331 331 332 332 332 331 331 329 326 327 329 328 328 330 331 331 330 330 330 330 329 329 329 329 329 328 328 328 327 328 327 327 328 327 327 327 327 327 327 327 327 326 326 327 327 327 327
333 332 331 329 328 329 331 332 332 332 331 330 331 332 332 331 331 331 331 332 332 329 329 328 326 327 329 330 329 330 330 330 329 330 331 330 330 329 329 330 329 329 329 328 328 328 328 327 327 328 327 327 327 327 327 327 327 326 326 327 327 327 326
331 332 332 330 328 327 330 332 333 332 330 330 331 331 331 331 331 331 332 332 329 327 328 329 328 328 330 331 330 329 329 330 330 330 330 330 329 329 330 330 330 329 329 329 329 328 327 327 327 328 327 327 327 327 327 327 326 326 327 327 327 326 326
330 332 332 332 330 329 329 331 333 332 330 330 330 331 331 331 331 331 331 330 328 328 330 330 329 329 331 331 329 327 328 330 330 329 330 330 329 329 329 330 330 329 329 329 329 328 327 327 327 328 327 327 327 327 327 327 327 327 327 327 326 326 326
330 330 331 331 330 330 329 330 332 332 331 331 330 330 331 331 331 330 330 329 328 329 330 330 330 330 330 329 329 329 329 330 330 329 330 329 329 329 329 330 329 329 329 329 328 328 327 326 327 327 327 327 327 327 327 326 327 327 327 326 326 326 325
329 329 330 330 330 330 330 331 332 331 331 331 331 330 331 331 330 330 330 329 330 329 329 330 330 329 327 327 328 331 331 330 330 330 330 330 330 329 329 330 329 328 329 328 328 327 327 327 327 327 327 327 327 326 327 326 326 326 327 326 326 325 324
329 329 329 329 330 330 329 330 332 331 331 331 331 331 331 330 331 330 330 330 330 330 329 330 329 327 327 328 329 330 330 330 330 330 330 329 330 330 329 329 328 328 328 328 328 327 327 327 327 327 327 328 328 327 326 326 326 326 326 326 325 323 323
329 329 328 328 329 329 328 329 331 331 331 331 331 331 330 329 330 330 329 329 329 329 329 328 327 327 328 329 329 330 330 329 329 329 329 329 329 330 329 328 328 328 328 328 328 327 326 327 327 327 328 328 328 328 327 326 326 325 326 325 324 324 323
329 329 328 328 329 328 326 329 331 331 330 331 331 331 330 329 330 330 329 329 328 329 328 327 327 328 329 328 329 330 330 329 329 329 329 329 329 329 329 328 328 328 328 328 328 327 327 327 327 327 327 327 327 328 327 326 326 325 325 325 324 324 323
328 328 328 328 328 327 325 327 330 330 330 331 331 330 330 330 330 330 329 327 327 328 328 327 328 329 328 327 328 330 329 329 329 329 329 328 328 328 328 328 328 328 327 327 327 327 326 326 327 327 327 327 327 327 325 326 326 324 324 324 324 323 322
327 327 327 327 326 326 326 327 328 329 330 330 330 330 330 330 330 329 328 327 328 329 328 328 328 328 327 327 328 329 328 327 328 328 327 326 326 327 328 327 327 327 326 327 327 327 326 326 326 327 327 326 326 326 325 325 325 324 323 323 322 321 321
326 326 326 327 326 326 325 324 325 327 329 330 330 329 328 328 329 328 328 328 329 330 329 328 328 327 326 327 328 328 326 325 326 325 324 325 325 326 326 326 327 326 326 326 326 326 326 327 326 326 326 326 326 326 325 324 325 324 322 320 319 318 317
325 325 325 326 328 327 324 324 325 327 329 329 329 328 327 328 328 329 329 329 329 329 329 329 328 327 326 326 325 323 322 323 324 324 324 324 324 325 325 325 325 325 325 325 325 325 326 327 326 326 326 326 326 325 324 324 325 324 321 319 317 317 316
323 324 325 327 328 327 324 326 329 329 329 329 328 327 328 328 329 329 329 329 329 329 329 328 328 327 325 324 322 321 320 320 322 323 323 323 323 324 324 324 324 324 324 324 325 326 326 326 326 326 326 326 326 325 324 323 324 324 322 319 318 317 317
324 325 326 327 327 327 327 328 329 329 328 328 327 327 329 330 329 330 329 329 329 328 328 327 326 326 325 325 323 321 320 320 320 322 323 323 323 324 324 324 324 324 325 325 325 326 326 326 326 326 326 326 326 325 323 322 323 323 323 321 320 319 318
327 326 326 327 326 326 327 328 329 329 328 325 325 327 329 328 329 330 329 329 328 327 326 326 325 325 325 325 323 321 321 322 322 323 323 323 324 325 325 325 324 324 324 325 326 326 326 326 326 326 326 326 325 324 323 322 322 322 323 323 323 322 321
328 326 326 326 326 326 327 328 329 329 328 325 324 326 328 327 328 328 328 328 327 327 326 325 325 325 324 323 322 321 323 324 323 322 322 323 324 326 325 325 325 325 325 325 326 326 326 326 325 325 325 325 324 323 322 322 322 322 323 323 323 323 323
328 328 327 326 327 327 326 327 328 328 328 326 325 326 327 326 327 327 327 327 326 326 326 326 326 325 324 322 321 322 324 323 322 322 322 322 323 325 325 325 325 325 325 325 326 326 326 325 324 324 324 323 322 322 322 322 321 321 321 322 322 322 322
328 328 328 327 327 327 327 327 327 327 327 326 325 327 328 326 326 327 326 326 326 326 326 326 326 324 323 321 322 323 323 322 322 322 322 322 322 324 325 325 325 325 326 325 324 325 325 323 322 322 321 321 321 320 320 320 320 320 321 321 321 321 321
327 327 328 327 327 327 327 327 326 327 327 326 326 328 328 327 327 326 326 326 326 325 325 324 324 323 321 322 322 322 321 321 322 322 322 322 321 322 325 325 325 325 324 322 321 322 321 321 320 319 319 319 319 319 319 319 319 319 320 320 319 319 319
325 326 327 327 327 327 328 328 327 328 328 328 328 328 327 327 326 326 326 326 325 322 322 323 323 322 322 321 321 321 321 321 321 321 322 322 321 323 325 326 324 324 322 320 319 319 319 319 319 319 319 319 319 319 319 319 318 319 319 318 318 318 318
324 325 325 326 326 327 327 327 328 328 328 328 328 327 326 326 326 326 325 324 322 321 322 323 323 322 321 321 320 320 320 319 320 321 321 321 321 323 326 325 323 321 320 320 320 320 320 320 320 320 320 319 320 319 319 319 319 319 319 318 318 318 318
324 324 325 325 325 325 325 327 328 328 328 328 327 327 326 326 326 325 324 322 322 322 323 323 323 322 321 320 319 319 319 319 320 321 321 321 322 324 325 323 321 320 321 321 321 320 320 320 320 320 320 320 320 320 320 320 319 319 319 319 319 318 318
323 324 324 324 324 324 325 326 327 327 327 327 327 326 325 324 324 323 322 322 323 323 323 323 323 322 321 320 319 319 319 319 320 321 321 322 323 324 323 322 320 321 321 320 320 320 320 320 319 319 318 318 317 318 318 318 318 318 318 318 318 318 318
321 322 323 323 323 323 324 325 326 327 327 326 326 324 323 322 322 322 322 322 322 322 323 323 322 321 321 320 319 320 320 320 320 321 322 323 323 322 321 321 321 321 320 320 319 319 318 318 316 316 314 314 314 314 315 316 316 317 317 317 317 317 317
319 319 320 322 322 323 324 324 324 324 324 325 324 322 321 321 322 323 323 322 322 322 322 322 321 320 321 320 319 320 321 321 321 321 322 323 322 321 321 321 320 319 317 317 316 316 315 314 313 313 313 313 313 313 314 315 316 317 317 318 318 318 318
317 317 318 320 321 322 324 324 324 323 324 323 322 321 320 320 320 322 322 322 322 322 321 321 321 320 319 319 319 320 321 321 321 322 322 322 321 321 321 319 316 314 313 313 313 313 313 313 313 313 313 313 313 313 313 315 316 317 317 318 318 318 318
317 317 318 319 321 321 322 322 322 321 321 319 319 320 320 317 318 320 321 321 321 321 321 321 321 318 318 318 319 320 321 321 321 322 322 321 321 320 318 314 312 312 312 312 312 312 313 313 313 313 313 313 313 313 314 314 316 316 317 318 318 318 318
317 317 317 319 320 320 320 320 319 319 318 316 317 319 319 318 318 319 319 320 320 321 321 320 319 318 318 319 319 320 321 321 321 321 321 321 319 317 315 313 312 312 312 312 312 313 313 312 312 313 313 313 313 314 314 315 316 316 316 317 317 317 316
317 317 317 318 319 319 319 319 318 318 317 316 316 318 319 319 319 318 318 318 319 319 320 319 319 319 319 320 320 319 319 319 318 318 318 317 315 314 313 312 313 312 312 312 312 312 312 312 312 313 313 313 314 315 315 315 316 316 315 315 315 315 314
316 316 316 316 317 317 317 317 317 317 316 316 317 317 318 318 318 318 318 318 319 319 319 319 319 319 319 319 319 317 316 316 315 314 314 314 313 313 312 312 313 312 312 311 311 311 312 312 313 314 315 315 316 316 316 315 315 315 314 314 313 313 312
315 315 315 315 315 315 315 316 316 316 315 315 316 316 316 316 317 317 317 317 318 318 318 317 317 317 317 318 317 316 315 315 314 314 314 313 313 313 313 313 313 313 312 313 314 314 314 315 315 315 315 315 315 315 315 314 313 312 311 310 309 308 306
314 314 313 314 314 314 314 314 315 315 314 314 315 315 315 315 315 315 314 314 315 315 315 315 315 315 315 315 315 314 314 314 314 315 314 314 314 314 315 315 315 315 315 315 316 316 315 315 315 315 314 314 314 313 312 311 309 307 305 304 303 302 301
313 313 313 313 313 313 313 313 313 313 313 313 313 314 314 313 313 313 313 313 313 314 314 314 313 314 314 314 313 313 313 313 314 314 314 315 316 315 315 315 316 316 316 315 315 315 314 314 313 312 311 310 309 308 306 305 303 301 301 300 299 299 299
311 311 311 311 312 311 311 311 311 311 311 311 312 312 312 312 312 312 312 312 312 312 313 313 313 313 313 312 313 313 313 312 312 311 312 313 314 314 314 314 315 316 315 314 313 312 310 309 307 306 305 304 303 302 301 300 299 299 299 298 298 298 298
Wind_Speed
19 21 22 22 21 20 19 18 16 16 17 18 18 17 18 18 17 18 19 21 22 23 23 22 20 18 18 19 20 20 19 18 16 16 17 17 18 19 20 18 14 8 6 6 7 8 9 9 10 10 9 9 9 8 8 8 8 9 9 8 6 6 6
21 21 22 22 23 22 22 21 18 16 17 18 19 17 18 18 18 19 19 20 22 23 23 22 20 18 18 18 20 21 20 17 15 15 16 16 16 18 20 19 16 12 9 7 6 7 8 7 8 9 10 10 9 8 8 7 8 10 10 8 7 6 7
22 22 22 23 24 25 25 23 21 17 15 17 18 17 19 20 19 20 21 21 22 24 23 22 21 21 20 19 20 20 18 16 15 16 16 15 14 15 18 19 17 14 11 8 6 5 6 6 6 6 8 10 9 9 9 8 8 11 11 9 7 7 7
24 24 24 23 23 25 26 24 21 17 14 15 16 17 19 20 20 21 22 22 22 24 23 22 22 22 21 19 19 17 16 16 15 16 16 15 12 12 16 17 15 13 10 6 4 3 3 4 4 5 6 8 8 8 9 9 10 12 12 10 9 8 8
25 25 25 24 24 25 26 23 19 16 13 14 16 17 18 19 20 21 21 21 22 23 23 22 22 22 21 18 17 16 15 15 15 15 16 15 13 13 15 16 13 12 9 6 4 3 3 3 4 5 5 7 8 8 9 9 10 11 11 11 11 10 9
25 25 23 23 23 25 26 23 17 15 14 13 14 16 17 18 19 19 19 20 21 23 23 22 21 21 19 17 16 16 15 14 14 15 15 14 14 14 15 15 13 10 9 8 5 4 5 6 6 6 6 6 8 8 9 9 9 9 9 11 12 10 9
24 22 20 20 20 22 25 21 16 15 15 13 12 13 16 18 18 19 20 20 20 21 21 21 20 18 17 17 16 16 15 15 14 14 15 15 15 15 15 14 12 10 9 8 7 6 6 6 6 7 6 6 7 8 8 9 10 9 8 11 11 10 9
22 19 19 19 17 19 22 19 15 14 15 14 12 12 15 17 19 21 21 20 19 19 19 18 18 17 17 17 17 16 15 15 16 16 16 16 15 14 13 12 11 10 10 9 8 7 7 7 6 6 5 6 8 8 7 7 9 9 8 9 10 10 9
21 20 20 20 17 17 19 17 15 14 14 13 13 13 15 17 20 21 21 20 19 18 17 16 16 16 16 16 16 15 14 15 16 15 15 15 14 13 11 11 11 11 10 10 9 8 8 8 8 7 6 6 8 8 7 6 6 8 9 8 8 9 9
22 20 20 19 16 15 15 14 13 14 13 14 15 16 19 19 20 20 20 20 19 18 17 16 16 15 15 14 15 15 14 14 14 13 13 12 12 11 11 11 11 11 10 10 10 9 8 9 9 8 7 7 7 7 7 6 4 5 8 8 7 7 8
19 17 17 17 16 14 12 12 12 13 14 15 16 18 20 21 20 20 19 19 18 18 17 15 15 14 14 14 15 15 14 13 13 12 12 12 11 11 10 10 11 11 10 10 9 9 9 10 10 9 8 7 8 8 6 4 2 2 6 8 7 7 6
11 12 14 15 14 11 10 11 13 15 15 16 17 18 19 20 20 19 19 18 17 17 16 15 15 14 14 13 13 13 12 12 12 12 12 11 11 11 11 11 11 11 10 10 10 10 9 10 10 10 10 9 8 9 8 5 2 2 6 8 7 7 5
5 5 8 9 8 8 8 10 12 15 17 18 17 17 17 18 19 19 18 17 17 17 16 15 15 15 14 14 14 14 13 13 13 12 12 12 11 12 12 12 12 12 11 10 10 10 10 10 10 10 10 9 9 10 10 6 3 3 7 8 7 6 5
7 2 1 2 5 7 8 10 13 16 18 19 18 18 18 18 18 18 17 16 17 17 16 16 15 15 15 15 14 14 13 13 13 12 12 12 12 12 12 12 12 12 11 11 11 11 11 10 9 9 10 10 11 12 11 8 5 5 8 8 7 7 6
10 5 1 3 8 8 9 11 15 17 18 19 19 18 17 17 17 17 16 17 17 17 16 15 14 15 16 15 13 12 12 12 12 12 12 12 11 11 12 12 12 12 11 11 11 11 11 10 9 9 10 11 12 13 13 10 7 7 8 8 7 7 6
8 6 3 2 7 8 9 12 16 18 18 19 19 17 17 17 17 17 17 17 17 16 15 14 14 15 15 14 12 10 10 11 12 12 12 11 11 11 12 12 12 11 11 11 11 11 10 10 9 9 10 11 13 14 14 12 9 7 7 7 7 6 5
6 4 3 1 4 7 9 11 15 17 18 18 18 17 17 17 17 17 18 17 17 16 15 15 15 15 14 12 11 9 8 10 11 12 11 10 10 11 11 11 11 11 10 10 11 10 10 9 9 10 10 11 13 14 14 13 11 9 8 7 6 5 5
5 4 3 2 4 6 8 10 14 17 18 18 17 15 15 15 16 17 18 16 16 15 15 15 15 15 13 11 10 9 9 11 11 11 10 10 10 10 10 11 11 10 10 10 10 10 9 9 9 10 11 12 12 13 13 13 11 10 8 7 6 6 5
3 3 3 3 4 6 7 10 14 18 18 17 15 13 13 14 15 16 15 15 14 14 13 13 13 12 11 10 10 10 11 12 12 10 10 10 10 10 11 11 11 10 10 10 10 9 9 9 8 10 12 12 12 12 12 11 10 9 7 6 6 6 6
3 3 2 3 4 5 6 9 14 17 18 16 14 14 15 15 14 14 13 12 11 11 10 10 10 10 9 10 11 12 13 13 12 11 10 10 10 11 11 11 11 10 10 9 9 9 9 9 10 11 12 11 11 10 9 8 7 7 6 6 6 6 6
1 3 3 3 4 5 6 9 13 16 17 16 15 16 17 16 15 14 13 11 10 9 9 9 9 9 10 11 13 13 13 13 13 12 11 9 9 11 12 12 11 10 10 10 10 10 10 11 10 10 10 9 9 8 8 8 8 7 7 7 7 7 7
1 1 3 4 4 5 7 10 14 16 17 17 16 16 16 16 16 14 12 11 10 10 10 10 10 11 12 13 14 14 14 13 13 13 11 10 10 11 12 12 11 11 11 11 12 12 12 11 10 9 9 8 8 8 8 8 7 7 6 6 7 7 7
3 2 1 3 4 5 7 10 13 15 16 17 16 15 16 16 15 13 12 11 10 10 11 12 12 13 13 13 14 14 14 13 13 12 10 9 10 11 12 12 13 13 13 13 13 13 13 12 11 9 9 9 8 8 7 6 5 5 4 4 4 5 5
8 7 5 6 5 5 7 7 10 12 13 15 15 15 17 17 15 12 10 9 9 10 13 14 14 13 12 12 13 14 13 13 13 12 10 8 9 11 13 15 16 16 14 13 13 12 11 11 10 9 8 8 7 7 6 6 5 5 6 5 5 5 5
11 10 8 9 7 6 6 6 10 12 13 14 14 16 18 16 13 11 10 9 10 13 14 14 13 12 11 11 12 12 12 13 13 12 10 8 10 13 17 19 19 17 15 13 12 10 9 8 7 6 6 6 6 6 6 6 6 7 7 7 8 7 7
16 12 10 9 7 5 5 6 10 14 14 13 14 16 15 12 10 9 10 11 12 12 13 13 12 11 10 10 10 10 11 12 13 11 9 9 12 17 20 20 19 17 14 12 10 9 7 6 5 4 3 3 3 3 4 5 6 6 7 7 7 8 8
20 17 13 9 6 4 4 5 9 14 15 15 14 13 11 8 8 9 11 12 12 11 12 11 10 10 11 10 10 10 10 12 14 12 10 12 16 19 20 19 17 14 12 10 9 8 7 5 4 3 2 1 1 1 2 3 4 5 6 6 6 7 7
22 20 17 13 7 5 4 3 4 6 11 14 13 13 12 9 9 10 11 11 11 11 11 10 10 10 11 11 11 9 10 13 14 13 12 15 17 18 18 16 14 12 11 11 10 9 7 5 4 4 4 5 6 6 5 4 3 4 4 5 5 5 6
24 21 18 14 10 7 5 3 3 2 3 7 8 11 14 12 9 9 8 8 9 10 10 10 10 9 10 12 12 11 13 16 16 15 15 17 18 18 17 15 14 13 13 12 10 7 6 5 4 3 4 6 7 7 7 6 5 4 4 4 4 5 5
25 21 17 14 11 10 7 5 6 6 4 3 3 6 12 12 9 7 6 7 8 8 8 9 9 9 10 12 11 12 15 18 17 17 18 19 19 19 17 16 14 13 12 10 6 3 2 4 4 4 5 7 8 8 7 6 5 5 5 4 4 5 6
25 22 17 13 11 10 9 8 10 9 6 5 5 3 9 9 7 5 4 5 6 6 7 8 9 10 11 11 12 15 18 20 20 21 22 22 21 19 17 16 14 11 8 5 2 3 5 7 7 7 7 9 10 9 7 6 6 6 5 5 4 4 5
24 23 19 14 10 9 9 9 9 10 7 4 2 3 7 8 7 6 5 6 6 6 7 10 11 11 12 13 15 16 17 18 17 15 15 17 17 16 14 11 9 7 4 4 4 5 6 8 8 7 8 10 11 9 7 6 6 6 6 5 5 4 4
21 21 19 16 11 9 10 11 10 11 11 9 7 9 9 7 6 7 7 8 9 10 11 14 14 14 14 14 14 12 9 9 9 7 8 11 13 13 11 8 7 7 6 6 6 6 6 7 7 7 8 9 8 6 5 5 5 5 5 5 5 4 4
19 17 17 16 12 10 11 12 12 13 13 13 14 15 12 7 6 9 9 10 12 13 13 14 14 14 14 13 11 8 5 4 5 6 7 9 9 10 11 10 9 9 7 6 6 5 6 6 6 6 6 5 5 4 4 3 3 3 3 3 3 3 3
21 17 14 12 11 12 13 13 14 15 15 16 16 16 13 9 8 9 7 8 10 9 7 8 8 8 8 7 5 5 3 1 3 4 5 6 7 8 9 9 9 7 6 4 3 3 4 4 4 4 2 1 2 2 2 2 2 2 2 2 2 2 3
27 22 17 13 11 12 12 11 12 12 12 12 13 13 10 7 5 5 6 6 6 4 2 1 1 1 2 2 1 1 1 1 1 0 1 3 5 6 5 6 6 5 3 2 2 2 2 2 2 1 1 2 2 2 2 2 2 1 1 1 1 2 2
28 26 23 20 18 17 16 15 15 15 13 12 11 10 9 5 2 3 4 4 4 4 3 2 2 2 2 2 2 2 2 3 5 6 6 7 7 6 6 6 5 3 2 2 1 1 1 0 0 1 2 3 3 3 2 1 1 0 0 0 1 1 1
Wind_Direction
276 276 275 272 272 272 272 270 266 262 260 256 252 246 239 236 235 230 220 215 220 220 215 210 207 213 218 217 220 224 225 222 213 211 218 220 216 208 205 207 206 197 181 171 176 180 178 186 198 201 203 209 212 211 210 212 211 206 205 213 220 217 216
279 279 279 278 279 280 280 278 274 268 262 253 246 240 233 230 229 230 223 216 218 217 212 206 204 214 221 217 218 222 221 218 214 211 217 224 223 215 209 206 203 201 195 181 178 178 172 170 182 195 202 207 211 208 202 201 200 198 202 210 215 216 217
283 282 281 281 281 282 282 281 277 273 263 249 239 231 228 225 224 228 226 220 217 213 206 202 204 213 220 215 215 222 222 217 214 211 215 225 227 220 214 208 203 204 204 199 193 187 188 184 174 185 199 202 204 202 194 197 202 200 203 206 209 217 219
290 289 286 284 282 282 283 280 274 270 260 242 232 227 226 225 223 225 224 218 214 209 203 202 206 213 217 213 213 219 219 216 213 210 216 223 220 213 211 209 208 213 215 212 204 185 194 202 182 174 187 194 199 201 195 196 201 200 203 208 212 221 227
288 289 288 287 285 286 289 283 271 265 256 238 228 226 226 224 222 223 219 212 208 206 205 206 208 213 214 212 213 215 216 216 210 205 210 213 206 201 204 204 207 216 218 211 205 186 173 181 182 172 177 185 189 201 204 201 203 203 206 214 220 226 234
285 284 285 285 285 289 294 287 275 271 262 243 232 228 224 220 219 218 209 203 204 206 208 209 210 214 213 210 214 217 218 214 206 199 200 203 200 197 199 201 204 210 209 204 201 194 177 172 178 174 173 179 183 195 202 201 207 213 216 221 225 229 236
292 289 285 283 283 290 296 288 276 278 267 251 245 234 223 213 206 201 196 197 204 207 208 210 210 212 211 211 215 218 216 208 200 196 195 198 200 198 197 198 199 200 199 198 199 199 187 176 183 188 178 172 179 189 197 200 206 213 225 230 228 230 236
294 292 289 287 286 293 297 285 270 272 262 248 242 229 217 205 192 188 190 194 201 204 205 207 207 208 211 215 215 212 209 200 193 193 194 194 196 197 196 192 191 190 191 194 196 197 189 176 181 194 186 172 174 184 198 204 206 209 221 231 228 228 233
294 288 285 286 287 292 293 280 263 261 253 239 229 213 200 192 186 185 187 192 195 198 200 202 206 211 214 215 211 204 203 199 194 195 195 192 193 196 195 191 187 184 187 193 194 192 189 183 179 180 183 182 177 179 189 202 213 217 217 218 222 226 227
300 290 281 278 283 288 285 272 256 250 242 230 219 200 185 180 181 183 186 190 193 195 197 201 209 214 211 210 206 199 197 195 195 197 194 191 194 199 198 190 183 183 189 193 193 193 191 189 185 178 180 188 183 175 176 185 206 220 215 207 209 220 223
312 300 285 280 284 283 273 260 247 239 232 223 211 193 182 179 180 184 187 191 194 196 198 202 209 209 205 207 207 199 192 189 192 196 193 190 194 201 202 192 185 188 194 193 192 195 193 191 191 187 184 183 181 180 176 169 158 179 194 195 193 202 212
327 312 298 290 283 268 254 250 239 228 223 218 206 191 185 185 186 188 190 193 197 200 201 201 203 202 200 203 205 199 194 192 195 196 196 197 198 201 203 199 197 198 198 196 195 196 192 191 193 192 191 185 177 177 176 162 110 136 173 180 186 188 189
353 325 308 297 275 239 226 232 230 223 217 213 205 194 189 190 192 193 194 197 200 201 199 194 194 196 198 198 197 197 198 196 197 198 199 202 203 202 203 203 204 204 203 203 200 198 194 190 192 192 191 188 177 171 169 156 109 131 161 165 172 178 175
357 1 338 253 224 215 213 214 219 221 215 210 204 196 193 194 195 196 198 200 198 196 194 190 188 191 193 192 190 193 196 194 195 196 196 200 202 202 204 204 205 206 207 205 202 202 198 192 193 193 190 188 179 169 161 152 133 141 158 157 152 154 155
359 359 8 174 181 199 218 214 212 213 209 205 201 196 196 196 194 195 196 195 192 190 191 189 185 184 184 183 183 188 194 195 195 194 192 195 197 199 200 201 204 206 206 205 203 201 199 193 193 194 192 188 179 167 158 155 150 148 158 162 152 142 140
357 2 7 187 186 204 224 214 206 205 201 197 196 198 200 197 193 191 189 188 187 186 186 183 179 178 177 178 180 186 194 198 197 195 194 195 196 196 199 201 203 204 203 201 198 195 192 190 190 191 189 183 176 168 160 159 156 152 161 167 161 152 147
335 346 4 255 212 219 222 211 204 202 198 194 194 200 202 196 192 190 185 184 184 182 181 179 176 177 179 181 185 190 197 197 195 194 193 194 195 196 197 200 201 200 196 192 191 189 185 182 185 187 183 178 174 170 165 162 161 162 167 171 173 173 175
315 320 318 264 222 216 216 210 201 198 198 198 200 204 200 195 196 191 183 182 183 180 181 180 177 178 182 186 191 195 194 189 187 186 183 183 188 189 188 191 194 193 190 187 186 185 180 177 182 186 182 176 174 172 169 167 168 171 176 185 193 197 202
254 269 278 243 214 207 207 204 198 197 199 201 204 204 196 195 202 194 182 182 184 182 181 181 180 183 187 192 195 190 182 178 175 173 171 172 176 177 177 181 186 187 186 184 183 183 180 178 178 179 175 171 171 172 172 173 177 182 189 204 214 220 225
224 227 235 226 213 209 205 202 200 199 200 200 202 202 194 194 198 191 181 182 186 185 186 188 190 194 196 197 191 180 172 172 170 166 165 169 173 174 174 176 178 178 176 174 175 177 175 171 166 166 168 167 169 175 180 185 192 199 207 220 231 242 246
217 226 231 232 227 222 215 208 204 202 200 200 201 199 193 190 188 184 183 186 192 198 203 205 203 198 194 190 183 175 172 173 171 169 169 174 177 177 177 176 176 175 171 164 161 159 161 164 164 166 170 172 177 186 195 201 206 212 217 224 233 244 251
34 256 233 234 233 229 222 213 207 203 200 200 201 199 192 186 183 183 187 195 210 220 217 207 197 188 185 184 178 173 174 175 175 175 179 183 184 183 181 180 177 173 166 157 151 151 155 158 158 162 169 173 178 184 190 196 201 208 214 222 233 242 249
29 34 264 264 255 238 231 216 203 201 199 196 198 196 190 185 182 184 194 210 226 221 199 186 182 179 181 182 179 176 177 180 180 181 185 191 190 186 182 177 168 161 157 153 150 150 152 152 149 153 162 166 167 169 173 178 186 198 214 229 242 251 259
23 28 21 345 307 264 251 222 200 203 201 193 193 192 188 184 181 185 203 221 214 189 177 176 175 175 177 181 183 183 184 185 184 183 188 197 194 184 174 164 157 154 153 153 153 153 153 154 155 159 167 171 174 177 184 192 201 212 220 227 237 246 254
22 17 7 348 330 298 271 226 198 203 204 195 191 191 188 183 178 187 205 205 184 173 174 177 176 174 179 183 184 186 189 189 186 185 190 199 190 175 165 160 156 155 156 156 155 155 155 158 162 170 179 184 190 196 201 209 217 222 226 230 238 243 246
29 17 357 338 329 312 283 235 203 203 205 198 190 185 181 177 177 188 194 184 176 175 177 180 182 183 187 190 186 186 192 192 189 187 187 182 171 162 159 159 158 157 159 159 158 155 154 155 155 161 170 178 193 206 214 221 226 230 233 237 243 247 250
32 25 11 351 330 314 293 246 210 200 194 189 184 175 164 161 170 177 178 176 175 177 180 185 189 191 197 199 193 193 199 196 189 181 169 160 158 157 159 161 160 159 156 153 150 145 138 131 120 107 84 28 347 314 282 262 253 249 247 244 246 250 254
30 28 22 10 353 339 320 271 235 203 182 178 177 163 144 144 165 172 174 180 182 182 188 194 194 199 206 203 196 196 196 190 184 175 163 158 158 160 162 162 158 153 145 136 132 125 112 98 79 52 29 11 358 347 335 315 295 280 269 262 260 260 260
26 27 25 19 16 9 350 326 330 329 182 175 176 165 152 150 168 176 171 180 187 189 198 206 205 207 208 200 194 192 188 185 184 179 170 166 166 167 166 161 152 145 140 135 130 118 99 80 59 33 16 5 353 341 330 318 306 295 284 277 272 265 263
24 27 28 29 37 44 44 58 66 59 56 47 65 158 165 163 173 183 171 171 179 184 199 215 219 212 200 193 192 192 190 189 189 184 178 175 174 173 168 159 150 145 146 147 144 121 57 22 8 354 345 342 334 322 309 298 291 286 285 286 280 272 274
25 30 35 37 44 61 70 79 83 80 65 25 27 140 175 176 178 182 174 172 177 181 194 207 214 207 194 187 190 194 195 195 193 189 185 181 177 171 163 154 152 156 164 181 228 310 327 328 327 327 327 321 311 299 285 277 275 279 286 289 280 275 279
28 32 38 39 40 56 70 79 89 94 95 71 43 146 167 174 180 186 196 193 188 189 191 190 191 189 183 182 185 184 184 184 181 173 170 168 164 159 157 155 161 178 210 251 276 299 312 311 305 300 298 297 292 284 274 266 267 274 280 278 270 268 271
33 36 40 41 41 55 74 87 99 103 103 106 118 130 136 149 163 164 168 171 170 175 177 171 169 171 174 182 186 182 175 177 174 159 159 167 167 169 177 186 197 213 239 262 271 279 285 282 278 278 283 284 280 269 258 254 257 265 270 271 271 273 275
38 42 47 50 54 70 89 102 110 111 110 116 122 120 119 125 135 134 134 138 143 151 153 149 152 159 165 174 185 191 196 194 189 190 189 186 190 200 209 214 219 228 243 257 263 269 272 273 276 279 279 274 259 244 235 232 238 248 259 269 274 272 273
49 48 52 60 75 89 97 101 105 108 110 114 115 115 117 124 119 109 98 101 115 129 137 136 142 152 157 165 186 206 216 177 166 187 194 195 206 216 218 218 222 230 238 245 258 278 285 284 282 274 255 211 200 204 205 207 215 234 253 265 268 265 268
58 56 56 62 75 83 81 76 78 85 92 98 102 104 106 100 79 56 40 44 56 62 64 76 70 117 146 161 193 200 158 90 93 139 233 222 217 215 219 227 229 230 236 247 271 290 291 284 273 239 133 133 151 165 178 192 196 216 235 234 250 260 260
62 62 62 64 67 68 66 63 63 63 63 67 74 81 84 78 25 336 329 333 346 359 359 328 301 281 246 242 248 241 252 274 273 269 269 263 254 248 244 237 224 209 209 217 230 272 296 303 117 115 117 126 128 124 127 132 117 94 184 205 231 245 236